,,Stat6,,Stat2,,Stat8,,Stat9,,Stat10,,Wind1,,Wind1,
time,status,PA1M_AVG,status,PR1M_SUM,status,RH1M_AVG,status,SR1M_AVG,status,TA1M_AVG,status,W1dAve1m,status,W1sAve1m,
2006-11-07, 16:21:00,VALID,918.931,VALID,0,VALID,86.4376,VALID,251.792,VALID,23.3082,VALID,55,VALID,0.631696,
2006-11-07, 16:22:00,VALID,918.942,VALID,0,VALID,85.3374,VALID,265.784,VALID,23.344,VALID,49,VALID,1.03981,
2006-11-07, 16:23:01,VALID,918.956,VALID,0,VALID,84.7728,VALID,279.623,VALID,23.2791,VALID,44,VALID,0.654883,
2006-11-07, 16:24:00,VALID,918.959,VALID,0,VALID,84.7054,VALID,291.782,VALID,23.3015,VALID,54,VALID,0.842561,
2006-11-07, 16:25:01,VALID,918.979,VALID,0,VALID,83.477,VALID,302.344,VALID,23.2791,VALID,21,VALID,1.22852,
2006-11-07, 16:26:01,VALID,918.986,VALID,0,VALID,83.8814,VALID,312.074,VALID,23.2404,VALID,4,VALID,1.24467,
2006-11-07, 16:27:01,VALID,919.013,VALID,0,VALID,84.4651,VALID,315.538,VALID,23.189,VALID,17,VALID,0.738917,
2006-11-07, 16:28:00,VALID,919.031,VALID,0,VALID,86.2428,VALID,315.504,VALID,23.2169,VALID,62,VALID,0.736235,
2006-11-07, 16:29:01,VALID,919.043,VALID,0,VALID,85.8575,VALID,318.951,VALID,23.3634,VALID,70,VALID,0.307927,
2006-11-07, 16:30:01,VALID,919.059,VALID,0,VALID,84.1599,VALID,323.723,VALID,23.495,VALID,58,VALID,0.724382,
2006-11-07, 16:31:01,VALID,919.064,VALID,0,VALID,82.8463,VALID,328.715,VALID,23.5954,VALID,43,VALID,1.53551,
2006-11-07, 16:32:00,VALID,919.066,VALID,0,VALID,83.1973,VALID,334.081,VALID,23.6183,VALID,16,VALID,0.815662,
2006-11-07, 16:33:01,VALID,919.063,VALID,0,VALID,83.8928,VALID,338.852,VALID,23.6732,VALID,43,VALID,0.907292,
2006-11-07, 16:34:00,VALID,919.06,VALID,0,VALID,82.6416,VALID,345.883,VALID,23.6762,VALID,2,VALID,1.11879,
2006-11-07, 16:35:01,VALID,919.028,VALID,0,VALID,83.3689,VALID,352.284,VALID,23.6629,VALID,54,VALID,0.958807,
2006-11-07, 16:36:00,VALID,919.021,VALID,0,VALID,83.8026,VALID,355.137,VALID,23.7023,VALID,37,VALID,0.849254,
2006-11-07, 16:37:01,VALID,919,VALID,0,VALID,82.5894,VALID,352.522,VALID,23.692,VALID,45,VALID,1.64608,
2006-11-07, 16:38:01,VALID,918.987,VALID,0,VALID,83.856,VALID,349.839,VALID,23.6873,VALID,27,VALID,0.866848,
2006-11-07, 16:39:00,VALID,918.988,VALID,0,VALID,83.5597,VALID,353.286,VALID,23.6999,VALID,5,VALID,1.18841,
2006-11-07, 16:40:01,VALID,918.98,VALID,0,VALID,81.712,VALID,356.071,VALID,23.6559,VALID,353,VALID,1.32395,
2006-11-07, 16:41:00,VALID,918.995,VALID,0,VALID,82.2359,VALID,358.584,VALID,23.559,VALID,355,VALID,1.67541,
2006-11-07, 16:42:01,VALID,919.013,VALID,0,VALID,82.2576,VALID,365.614,VALID,23.4427,VALID,11,VALID,0.86044,
2006-11-07, 16:43:01,VALID,919.029,VALID,0,VALID,83.4236,VALID,378.384,VALID,23.4456,VALID,332,VALID,1.02121,
2006-11-07, 16:44:01,VALID,919.051,VALID,0,VALID,83.3931,VALID,414.078,VALID,23.5396,VALID,342,VALID,1.16211,
2006-11-07, 16:45:01,VALID,919.072,VALID,0,VALID,84.109,VALID,447.852,VALID,23.5807,VALID,10,VALID,1.40352,
2006-11-07, 16:46:00,VALID,919.061,VALID,0,VALID,79.5834,VALID,471.065,VALID,23.517,VALID,20,VALID,1.47256,
2006-11-07, 16:47:01,VALID,919.055,VALID,0,VALID,81.829,VALID,511.429,VALID,23.5035,VALID,28,VALID,1.3407,
2006-11-07, 16:48:01,VALID,919.05,VALID,0,VALID,81.9142,VALID,489.269,VALID,23.5643,VALID,35,VALID,1.38337,
2006-11-07, 16:49:01,VALID,919.029,VALID,0,VALID,81.1602,VALID,503.431,VALID,23.662,VALID,33,VALID,1.52961,
2006-11-07, 16:50:01,VALID,919.014,VALID,0,VALID,81.3712,VALID,539.634,VALID,23.7037,VALID,22,VALID,1.71745,
2006-11-07, 16:51:01,VALID,919.004,VALID,0,VALID,80.9198,VALID,487.452,VALID,23.8068,VALID,44,VALID,0.87936,
2006-11-07, 16:52:01,VALID,919.005,VALID,0,VALID,81.417,VALID,473.069,VALID,23.916,VALID,5,VALID,1.38486,
2006-11-07, 16:53:01,VALID,918.992,VALID,0,VALID,81.7184,VALID,498.014,VALID,24.0235,VALID,7,VALID,1.68682,
2006-11-07, 16:54:01,VALID,919.002,VALID,0,VALID,81.417,VALID,527.085,VALID,23.9906,VALID,2,VALID,1.82891,
2006-11-07, 16:55:01,VALID,918.969,VALID,0,VALID,79.9852,VALID,531.738,VALID,23.8934,VALID,358,VALID,1.46913,
2006-11-07, 16:56:01,VALID,918.972,VALID,0,VALID,82.0058,VALID,530.209,VALID,23.9357,VALID,35,VALID,1.02646,
2006-11-07, 16:57:01,VALID,918.954,VALID,0,VALID,81.4577,VALID,526.491,VALID,24.0779,VALID,18,VALID,1.04325,
2006-11-07, 16:58:01,VALID,918.957,VALID,0,VALID,81.3458,VALID,528.97,VALID,24.2171,VALID,35,VALID,1.35882,
2006-11-07, 16:59:01,VALID,918.965,VALID,0,VALID,79.8262,VALID,522.245,VALID,24.3237,VALID,5,VALID,0.617569,
2006-11-07, 17:00:01,VALID,918.967,VALID,0,VALID,81.5175,VALID,531.84,VALID,24.5689,VALID,290,VALID,0.758358,
2006-11-07, 17:01:01,VALID,918.975,VALID,0,VALID,80.0246,VALID,535.083,VALID,24.8083,VALID,328,VALID,1.4191,
2006-11-07, 17:02:01,VALID,918.97,VALID,0,VALID,79.3507,VALID,534.251,VALID,24.8297,VALID,13,VALID,1.45065,
2006-11-07, 17:03:01,VALID,918.969,VALID,0,VALID,77.5145,VALID,550.06,VALID,24.7945,VALID,39,VALID,1.08185,
2006-11-07, 17:04:01,VALID,918.957,VALID,0,VALID,77.0681,VALID,561.454,VALID,24.7848,VALID,18,VALID,0.958333,
2006-11-07, 17:05:01,VALID,918.962,VALID,0,VALID,79.4588,VALID,558.924,VALID,24.8003,VALID,321,VALID,1.57831,
2006-11-07, 17:06:00,VALID,918.97,VALID,0,VALID,78.3919,VALID,567.397,VALID,24.8229,VALID,332,VALID,1.08408,
2006-11-07, 17:07:00,VALID,918.951,VALID,0,VALID,77.4712,VALID,582.086,VALID,24.936,VALID,309,VALID,1.02754,
2006-11-07, 17:08:00,VALID,918.935,VALID,0,VALID,76.7782,VALID,576.72,VALID,24.9454,VALID,323,VALID,2.04052,
2006-11-07, 17:09:00,VALID,918.927,VALID,0,VALID,78.6309,VALID,577.96,VALID,24.8161,VALID,306,VALID,1.72603,
2006-11-07, 17:10:00,VALID,918.901,VALID,0,VALID,79.8301,VALID,603.669,VALID,24.7838,VALID,271,VALID,2.05814,
2006-11-07, 17:11:00,VALID,918.888,VALID,0,VALID,77.8171,VALID,686.297,VALID,24.8478,VALID,311,VALID,1.75672,
2006-11-07, 17:12:00,VALID,918.875,VALID,0,VALID,75.7253,VALID,701.767,VALID,24.8417,VALID,314,VALID,1.81032,
2006-11-07, 17:13:00,VALID,918.862,VALID,0,VALID,77.1139,VALID,744.983,VALID,24.8252,VALID,314,VALID,1.37539,
2006-11-07, 17:14:00,VALID,918.846,VALID,0,VALID,75.6846,VALID,631.313,VALID,24.8614,VALID,280,VALID,0.74707,
2006-11-07, 17:15:00,VALID,918.829,VALID,0,VALID,76.6714,VALID,643.302,VALID,24.9577,VALID,307,VALID,1.28993,
2006-11-07, 17:16:00,VALID,918.821,VALID,0,VALID,76.9995,VALID,614.825,VALID,25.0459,VALID,309,VALID,1.7783,
2006-11-07, 17:17:00,VALID,918.809,VALID,0,VALID,74.8505,VALID,762.1,VALID,24.9303,VALID,345,VALID,1.64489,
2006-11-07, 17:18:00,VALID,918.796,VALID,0,VALID,74.9128,VALID,700.884,VALID,24.8498,VALID,350,VALID,1.0372,
2006-11-07, 17:19:00,VALID,918.767,VALID,0,VALID,75.2256,VALID,653.473,VALID,24.8763,VALID,317,VALID,1.24637,
2006-11-07, 17:20:00,VALID,918.738,VALID,0,VALID,77.25,VALID,631.5,VALID,24.8472,VALID,297,VALID,1.93121,
2006-11-07, 17:21:00,VALID,918.697,VALID,0,VALID,78.9438,VALID,626.406,VALID,24.8375,VALID,292,VALID,2.92605,
2006-11-07, 17:22:00,VALID,918.665,VALID,0,VALID,77.9672,VALID,665.818,VALID,24.8407,VALID,280,VALID,2.77253,
2006-11-07, 17:23:00,VALID,918.695,VALID,0,VALID,78.1426,VALID,621.481,VALID,24.8717,VALID,273,VALID,2.63058,
2006-11-07, 17:24:00,VALID,918.666,VALID,0,VALID,78.8026,VALID,552.098,VALID,24.9392,VALID,270,VALID,2.65816,
2006-11-07, 17:25:00,VALID,918.677,VALID,0,VALID,78.9654,VALID,540.415,VALID,24.9912,VALID,277,VALID,2.83289,
2006-11-07, 17:26:00,VALID,918.675,VALID,0,VALID,76.8392,VALID,535.015,VALID,24.852,VALID,270,VALID,2.52307,
2006-11-07, 17:27:00,VALID,918.65,VALID,0,VALID,78.945,VALID,530.991,VALID,24.7615,VALID,272,VALID,3.29512,
2006-11-07, 17:28:00,VALID,918.671,VALID,0,VALID,79.6292,VALID,541.773,VALID,24.6646,VALID,279,VALID,2.04427,
2006-11-07, 17:29:00,VALID,918.672,VALID,0,VALID,77.606,VALID,552.947,VALID,24.6507,VALID,293,VALID,1.86047,
2006-11-07, 17:30:00,VALID,918.676,VALID,0,VALID,79.0378,VALID,574.461,VALID,24.6966,VALID,285,VALID,1.01797,
2006-11-07, 17:31:00,VALID,918.67,VALID,0,VALID,79.5287,VALID,581.78,VALID,24.9001,VALID,220,VALID,0.468936,
2006-11-07, 17:32:00,VALID,918.657,VALID,0,VALID,76.8545,VALID,613.891,VALID,24.9829,VALID,134,VALID,0.748698,
2006-11-07, 17:33:00,VALID,918.663,VALID,0,VALID,75.8779,VALID,772.186,VALID,25.0068,VALID,144,VALID,0.866493,
2006-11-07, 17:34:00,VALID,918.656,VALID,0,VALID,76.2594,VALID,578.809,VALID,25.1331,VALID,252,VALID,0.538491,
2006-11-07, 17:35:00,VALID,918.649,VALID,0,VALID,74.2019,VALID,527,VALID,25.3428,VALID,354,VALID,0.560292,
2006-11-07, 17:36:00,VALID,918.647,VALID,0,VALID,74.9382,VALID,508.949,VALID,25.5403,VALID,20,VALID,0.552689,
2006-11-07, 17:37:00,VALID,918.638,VALID,0,VALID,77.3186,VALID,527.815,VALID,25.7465,VALID,137,VALID,1.01582,
2006-11-07, 17:38:00,VALID,918.647,VALID,0,VALID,76.0699,VALID,529.717,VALID,25.6657,VALID,144,VALID,0.885069,
2006-11-07, 17:39:00,VALID,918.649,VALID,0,VALID,74.7538,VALID,480.252,VALID,25.4391,VALID,129,VALID,0.900195,
2006-11-07, 17:40:00,VALID,918.634,VALID,0,VALID,76.2454,VALID,466.039,VALID,25.433,VALID,135,VALID,0.767299,
2006-11-07, 17:41:00,VALID,918.629,VALID,0,VALID,77.7217,VALID,461.59,VALID,25.5613,VALID,99,VALID,0.450218,
2006-11-07, 17:42:00,VALID,918.618,VALID,0,VALID,76.3751,VALID,460.894,VALID,25.7591,VALID,120,VALID,0.599414,
2006-11-07, 17:43:00,VALID,918.615,VALID,0,VALID,77.4115,VALID,458.313,VALID,25.7953,VALID,179,VALID,0.435404,
2006-11-07, 17:44:00,VALID,918.604,VALID,0,VALID,77.5819,VALID,455.986,VALID,25.8327,VALID,168,VALID,0.101215,
2006-11-07, 17:45:00,VALID,918.589,VALID,0,VALID,75.115,VALID,451.605,VALID,26.0267,VALID,108,VALID,0.290516,
2006-11-07, 17:46:00,VALID,918.569,VALID,0,VALID,74.3634,VALID,457.226,VALID,26.0367,VALID,233,VALID,0.24673,
2006-11-07, 17:47:00,VALID,918.561,VALID,0,VALID,74.6038,VALID,463.729,VALID,26.0554,VALID,186,VALID,0.225174,
2006-11-07, 17:48:00,VALID,918.537,VALID,0,VALID,75.6465,VALID,464.918,VALID,26.1394,VALID,184,VALID,0.0813643,
2006-11-07, 17:49:00,VALID,918.521,VALID,0,VALID,73.3004,VALID,477.042,VALID,26.2652,VALID,231,VALID,0.577217,
2006-11-07, 17:50:00,VALID,918.506,VALID,0,VALID,74.9687,VALID,467.839,VALID,26.3948,VALID,249,VALID,0.253196,
2006-11-07, 17:51:00,VALID,918.497,VALID,0,VALID,73.7518,VALID,467.771,VALID,26.5082,VALID,196,VALID,0.316034,
2006-11-07, 17:52:00,VALID,918.471,VALID,0,VALID,71.9715,VALID,470.675,VALID,26.3722,VALID,154,VALID,0.613636,
2006-11-07, 17:53:00,VALID,918.453,VALID,0,VALID,74.7818,VALID,474.818,VALID,26.1462,VALID,146,VALID,0.859193,
2006-11-07, 17:54:00,VALID,918.443,VALID,0,VALID,76.2518,VALID,476.737,VALID,25.8777,VALID,141,VALID,1.22366,
2006-11-07, 17:55:00,VALID,918.422,VALID,0,VALID,78.5674,VALID,480.218,VALID,25.3958,VALID,142,VALID,1.13969,
2006-11-07, 17:56:00,VALID,918.419,VALID,0,VALID,80.2192,VALID,478.078,VALID,25.1832,VALID,143,VALID,1.44477,
2006-11-07, 17:57:00,VALID,918.407,VALID,0,VALID,81.0355,VALID,474.326,VALID,24.9306,VALID,147,VALID,0.753374,
2006-11-07, 17:58:00,VALID,918.398,VALID,0,VALID,82.2957,VALID,477.365,VALID,24.8669,VALID,151,VALID,1.49538,
2006-11-07, 17:59:00,VALID,918.387,VALID,0,VALID,83.7682,VALID,468.926,VALID,24.6821,VALID,136,VALID,1.5012,
2006-11-07, 18:00:00,VALID,918.382,VALID,0,VALID,83.8076,VALID,466.022,VALID,24.653,VALID,86,VALID,0.842448,
2006-11-07, 18:01:00,VALID,918.377,VALID,0,VALID,83.8471,VALID,456.784,VALID,24.727,VALID,145,VALID,1.39258,
2006-11-07, 18:02:00,VALID,918.354,VALID,0,VALID,84.1459,VALID,436.696,VALID,24.5781,VALID,140,VALID,1.65607,
2006-11-07, 18:03:00,VALID,918.341,VALID,0,VALID,84.6393,VALID,419.749,VALID,24.3749,VALID,144,VALID,2.1457,
2006-11-07, 18:04:00,VALID,918.31,VALID,0,VALID,85.9808,VALID,407.998,VALID,24.2906,VALID,119,VALID,1.7378,
2006-11-07, 18:05:00,VALID,918.303,VALID,0,VALID,85.5777,VALID,400.527,VALID,24.2299,VALID,147,VALID,1.86604,
2006-11-07, 18:06:00,VALID,918.276,VALID,0,VALID,86.5619,VALID,393.157,VALID,24.123,VALID,135,VALID,1.67714,
2006-11-07, 18:07:00,VALID,918.242,VALID,0,VALID,87.8424,VALID,383.716,VALID,24.1747,VALID,121,VALID,0.86452,
2006-11-07, 18:08:00,VALID,918.228,VALID,0,VALID,87.4521,VALID,376.72,VALID,24.3029,VALID,136,VALID,0.959794,
2006-11-07, 18:09:00,VALID,918.235,VALID,0,VALID,87.8196,VALID,380.897,VALID,24.4677,VALID,139,VALID,0.496354,
2006-11-07, 18:10:00,VALID,918.223,VALID,0,VALID,85.799,VALID,386.637,VALID,24.5123,VALID,151,VALID,0.940589,
2006-11-07, 18:11:00,VALID,918.211,VALID,0,VALID,86.623,VALID,383.597,VALID,24.5449,VALID,146,VALID,0.693496,
2006-11-07, 18:12:00,VALID,918.206,VALID,0,VALID,87.2969,VALID,379.352,VALID,24.69,VALID,116,VALID,0.352679,
2006-11-07, 18:13:00,VALID,918.196,VALID,0,VALID,86.4208,VALID,370.878,VALID,24.9035,VALID,135,VALID,0.291109,
2006-11-07, 18:14:00,VALID,918.181,VALID,0,VALID,85.4569,VALID,360.69,VALID,25.0976,VALID,291,VALID,1.04833,
2006-11-07, 18:15:00,VALID,918.187,VALID,0,VALID,85.2535,VALID,355.63,VALID,25.1881,VALID,286,VALID,0.618786,
2006-11-07, 18:16:00,VALID,918.163,VALID,0,VALID,85.2001,VALID,350.586,VALID,25.34,VALID,335,VALID,0.520275,
2006-11-07, 18:17:00,VALID,918.157,VALID,0,VALID,83.7619,VALID,338.7,VALID,25.476,VALID,193,VALID,0.681734,
2006-11-07, 18:18:00,VALID,918.141,VALID,0,VALID,81.2441,VALID,317.525,VALID,25.4078,VALID,141,VALID,0.613009,
2006-11-07, 18:19:00,VALID,918.125,VALID,0,VALID,81.7438,VALID,301.715,VALID,25.4278,VALID,58,VALID,0.257241,
2006-11-07, 18:20:00,VALID,918.111,VALID,0,VALID,81.9257,VALID,294.583,VALID,25.5787,VALID,112,VALID,0.48964,
2006-11-07, 18:21:00,VALID,918.098,VALID,0,VALID,81.3712,VALID,289.336,VALID,25.5203,VALID,131,VALID,0.731534,
2006-11-07, 18:22:00,VALID,918.076,VALID,0,VALID,82.7052,VALID,302.021,VALID,25.0249,VALID,129,VALID,0.692522,
2006-11-07, 18:23:00,VALID,918.057,VALID,0,VALID,83.9386,VALID,319.223,VALID,24.9929,VALID,115,VALID,0.485491,
2006-11-07, 18:24:00,VALID,918.045,VALID,0,VALID,83.8013,VALID,347.462,VALID,25.021,VALID,46,VALID,0.260538,
2006-11-07, 18:25:00,VALID,918.042,VALID,0,VALID,84.816,VALID,381.746,VALID,25.2155,VALID,312,VALID,0.608073,
2006-11-07, 18:26:00,VALID,918.036,VALID,0,VALID,84.5452,VALID,416.947,VALID,25.4062,VALID,240,VALID,0.638626,
2006-11-07, 18:27:00,VALID,918.032,VALID,0,VALID,82.1749,VALID,444.117,VALID,25.3968,VALID,103,VALID,0.773633,
2006-11-07, 18:28:00,VALID,918.01,VALID,0,VALID,82.3453,VALID,466.158,VALID,25.445,VALID,149,VALID,0.625347,
2006-11-07, 18:29:00,VALID,918.006,VALID,0,VALID,83.5813,VALID,490.593,VALID,25.5997,VALID,244,VALID,0.277716,
2006-11-07, 18:30:00,VALID,917.993,VALID,0,VALID,81.7006,VALID,495.636,VALID,25.7713,VALID,144,VALID,0.497159,
2006-11-07, 18:31:00,VALID,917.975,VALID,0,VALID,80.1213,VALID,494.499,VALID,25.8134,VALID,92,VALID,0.822311,
2006-11-07, 18:32:00,VALID,917.97,VALID,0,VALID,80.1747,VALID,468.518,VALID,25.8786,VALID,149,VALID,0.55506,
2006-11-07, 18:33:00,VALID,917.952,VALID,0,VALID,80.0233,VALID,442.707,VALID,25.8618,VALID,132,VALID,0.581032,
2006-11-07, 18:34:00,VALID,917.929,VALID,0,VALID,80.1124,VALID,471.795,VALID,25.878,VALID,100,VALID,0.656436,
2006-11-07, 18:35:00,VALID,917.902,VALID,0,VALID,79.7563,VALID,497.708,VALID,26.0586,VALID,47,VALID,0.441016,
2006-11-07, 18:36:00,VALID,917.89,VALID,0,VALID,81.4297,VALID,533.674,VALID,26.2367,VALID,322,VALID,0.672396,
2006-11-07, 18:37:00,VALID,917.873,VALID,0,VALID,79.1065,VALID,588.029,VALID,26.3359,VALID,333,VALID,0.499619,
2006-11-07, 18:38:00,VALID,917.865,VALID,0,VALID,79.427,VALID,643.438,VALID,26.42,VALID,273,VALID,0.541016,
2006-11-07, 18:39:00,VALID,917.846,VALID,0,VALID,78.6538,VALID,786.773,VALID,26.4749,VALID,110,VALID,0.775586,
2006-11-07, 18:40:00,VALID,917.837,VALID,0,VALID,78.9158,VALID,1051.66,VALID,26.5874,VALID,305,VALID,1.11384,
2006-11-07, 18:41:00,VALID,917.829,VALID,0,VALID,79.928,VALID,877.671,VALID,26.7242,VALID,242,VALID,1.53506,
2006-11-07, 18:42:00,VALID,917.824,VALID,0,VALID,78.5127,VALID,701.427,VALID,26.7238,VALID,269,VALID,1.0767,
2006-11-07, 18:43:00,VALID,917.826,VALID,0,VALID,77.5704,VALID,823.01,VALID,26.7856,VALID,187,VALID,0.588481,
2006-11-07, 18:44:00,VALID,917.809,VALID,0,VALID,78.5686,VALID,1022.94,VALID,26.8693,VALID,275,VALID,1.61257,
2006-11-07, 18:45:00,VALID,917.816,VALID,0,VALID,76.9982,VALID,713.076,VALID,27.0141,VALID,277,VALID,0.922828,
2006-11-07, 18:46:00,VALID,917.817,VALID,0,VALID,77.5386,VALID,586.688,VALID,27.0403,VALID,12,VALID,0.93378,
2006-11-07, 18:47:00,VALID,917.808,VALID,0,VALID,76.3077,VALID,604.297,VALID,27.0777,VALID,70,VALID,1.1994,
2006-11-07, 18:48:00,VALID,917.807,VALID,0,VALID,77.0999,VALID,875.073,VALID,26.9265,VALID,170,VALID,1.00905,
2006-11-07, 18:49:00,VALID,917.786,VALID,0,VALID,79.5198,VALID,855.24,VALID,26.7516,VALID,255,VALID,1.68992,
2006-11-07, 18:50:00,VALID,917.818,VALID,0,VALID,79.5109,VALID,1013.45,VALID,26.9966,VALID,155,VALID,0.630526,
2006-11-07, 18:51:00,VALID,917.79,VALID,0,VALID,75.4964,VALID,739.77,VALID,27.2878,VALID,95,VALID,1.06269,
2006-11-07, 18:52:00,VALID,917.8,VALID,0,VALID,74.3609,VALID,534.794,VALID,27.1003,VALID,222,VALID,0.890434,
2006-11-07, 18:53:00,VALID,917.773,VALID,0,VALID,76.309,VALID,460.367,VALID,26.9925,VALID,296,VALID,0.956032,
2006-11-07, 18:54:00,VALID,917.767,VALID,0,VALID,76.0648,VALID,421.26,VALID,26.9217,VALID,248,VALID,0.661644,
2006-11-07, 18:55:00,VALID,917.735,VALID,0,VALID,77.4382,VALID,452.675,VALID,26.8402,VALID,282,VALID,0.714258,
2006-11-07, 18:56:00,VALID,917.727,VALID,0,VALID,78.1109,VALID,467.228,VALID,26.7917,VALID,248,VALID,0.603237,
2006-11-07, 18:57:00,VALID,917.73,VALID,0,VALID,77.9112,VALID,482.256,VALID,26.8172,VALID,316,VALID,0.835938,
2006-11-07, 18:58:00,VALID,917.738,VALID,0,VALID,76.1869,VALID,458.041,VALID,26.792,VALID,113,VALID,0.907774,
2006-11-07, 18:59:00,VALID,917.744,VALID,0,VALID,76.5608,VALID,416.574,VALID,26.6064,VALID,143,VALID,0.590116,
2006-11-07, 19:00:00,VALID,917.745,VALID,0,VALID,77.8947,VALID,441.077,VALID,26.526,VALID,35,VALID,0.809152,
2006-11-07, 19:01:00,VALID,917.742,VALID,0,VALID,77.6658,VALID,451.096,VALID,26.3149,VALID,134,VALID,1.00818,
2006-11-07, 19:02:00,VALID,917.722,VALID,0,VALID,79.5096,VALID,473.46,VALID,25.8993,VALID,240,VALID,1.60819,
2006-11-07, 19:03:00,VALID,917.753,VALID,0,VALID,80.6808,VALID,447.343,VALID,25.7826,VALID,172,VALID,1.41406,
2006-11-07, 19:04:00,VALID,917.753,VALID,0,VALID,80.1899,VALID,448.311,VALID,25.5464,VALID,123,VALID,1.52306,
2006-11-07, 19:05:00,VALID,917.738,VALID,0,VALID,81.7082,VALID,464.409,VALID,25.4143,VALID,254,VALID,1.2766,
2006-11-07, 19:06:00,VALID,917.718,VALID,0,VALID,82.2766,VALID,454.407,VALID,25.4753,VALID,252,VALID,1.62364,
2006-11-07, 19:07:00,VALID,917.725,VALID,0,VALID,82.8654,VALID,444.83,VALID,25.4101,VALID,183,VALID,0.790551,
2006-11-07, 19:08:00,VALID,917.722,VALID,0,VALID,82.9569,VALID,441.637,VALID,25.4569,VALID,167,VALID,0.554155,
2006-11-07, 19:09:00,VALID,917.695,VALID,0,VALID,81.0661,VALID,424.181,VALID,25.4124,VALID,191,VALID,0.959635,
2006-11-07, 19:10:00,VALID,917.65,VALID,0,VALID,81.5353,VALID,384.582,VALID,25.2641,VALID,281,VALID,1.19327,
2006-11-07, 19:11:00,VALID,917.644,VALID,0,VALID,83.1642,VALID,352.726,VALID,25.1445,VALID,123,VALID,1.21431,
2006-11-07, 19:12:00,VALID,917.592,VALID,0,VALID,84.1611,VALID,364.477,VALID,25.151,VALID,78,VALID,0.86814,
2006-11-07, 19:13:00,VALID,917.575,VALID,0,VALID,83.5381,VALID,407.642,VALID,25.2708,VALID,78,VALID,1.10778,
2006-11-07, 19:14:00,VALID,917.529,VALID,0,VALID,83.6779,VALID,490.44,VALID,25.2712,VALID,255,VALID,1.56562,
2006-11-07, 19:15:00,VALID,917.519,VALID,0,VALID,84.4155,VALID,490.288,VALID,25.2518,VALID,228,VALID,1.31481,
2006-11-07, 19:16:00,VALID,917.511,VALID,0,VALID,83.6805,VALID,484.446,VALID,25.2737,VALID,185,VALID,0.780859,
2006-11-07, 19:17:00,VALID,917.51,VALID,0,VALID,82.269,VALID,493.904,VALID,25.4133,VALID,206,VALID,0.773619,
2006-11-07, 19:18:00,VALID,917.495,VALID,0,VALID,81.3827,VALID,647.292,VALID,25.5196,VALID,296,VALID,0.743459,
2006-11-07, 19:19:00,VALID,917.485,VALID,0,VALID,81.3979,VALID,596.435,VALID,25.6786,VALID,283,VALID,1.56498,
2006-11-07, 19:20:00,VALID,917.494,VALID,0,VALID,82.2334,VALID,598.591,VALID,25.7655,VALID,287,VALID,0.826953,
2006-11-07, 19:21:00,VALID,917.491,VALID,0,VALID,80.8397,VALID,405.129,VALID,25.8524,VALID,10,VALID,1.29383,
2006-11-07, 19:22:00,VALID,917.466,VALID,0,VALID,79.7271,VALID,432.485,VALID,25.6883,VALID,268,VALID,1.96968,
2006-11-07, 19:23:00,VALID,917.465,VALID,0,VALID,82.1596,VALID,435.015,VALID,25.7048,VALID,284,VALID,1.59466,
2006-11-07, 19:24:00,VALID,917.476,VALID,0,VALID,81.4768,VALID,407.947,VALID,25.7817,VALID,274,VALID,1.84505,
2006-11-07, 19:25:00,VALID,917.45,VALID,0,VALID,79.7372,VALID,383.393,VALID,25.7151,VALID,271,VALID,2.44627,
2006-11-07, 19:26:00,VALID,917.466,VALID,0,VALID,80.0144,VALID,365.495,VALID,25.5726,VALID,271,VALID,0.89335,
2006-11-07, 19:27:00,VALID,917.464,VALID,0,VALID,80.5231,VALID,443.166,VALID,25.5949,VALID,318,VALID,0.700893,
2006-11-07, 19:28:00,VALID,917.448,VALID,0,VALID,80.0106,VALID,579.607,VALID,25.7015,VALID,309,VALID,0.674893,
2006-11-07, 19:29:00,VALID,917.42,VALID,0,VALID,80.6375,VALID,425.319,VALID,25.8007,VALID,286,VALID,1.25715,
2006-11-07, 19:30:00,VALID,917.4,VALID,0,VALID,80.7126,VALID,381.763,VALID,25.8925,VALID,284,VALID,0.889101,
2006-11-07, 19:31:00,VALID,917.404,VALID,0,VALID,80.958,VALID,431.789,VALID,25.9145,VALID,278,VALID,1.58422,
2006-11-07, 19:32:00,VALID,917.384,VALID,0,VALID,80.4455,VALID,523.519,VALID,25.9985,VALID,270,VALID,1.36504,
2006-11-07, 19:33:00,VALID,917.362,VALID,0,VALID,79.104,VALID,491.51,VALID,26.0761,VALID,263,VALID,1.38594,
2006-11-07, 19:34:00,VALID,917.334,VALID,0,VALID,80.4315,VALID,498.812,VALID,26.1989,VALID,263,VALID,1.13164,
2006-11-07, 19:35:00,VALID,917.309,VALID,0,VALID,76.7769,VALID,501.104,VALID,26.1953,VALID,232,VALID,0.829942,
2006-11-07, 19:36:00,VALID,917.317,VALID,0,VALID,79.1587,VALID,696.944,VALID,26.1181,VALID,264,VALID,1.131,
2006-11-07, 19:37:00,VALID,917.288,VALID,0,VALID,79.1714,VALID,977.417,VALID,26.2991,VALID,252,VALID,0.774368,
2006-11-07, 19:38:00,VALID,917.278,VALID,0,VALID,77.5386,VALID,1208.36,VALID,26.4894,VALID,210,VALID,1.15053,
2006-11-07, 19:39:00,VALID,917.267,VALID,0,VALID,78.149,VALID,1081.31,VALID,26.664,VALID,265,VALID,1.54379,
2006-11-07, 19:40:00,VALID,917.28,VALID,0,VALID,77.6162,VALID,930.346,VALID,26.8518,VALID,260,VALID,1.62862,
2006-11-07, 19:41:00,VALID,917.285,VALID,0,VALID,78.2622,VALID,678.877,VALID,27.1808,VALID,292,VALID,0.711509,
2006-11-07, 19:42:00,VALID,917.283,VALID,0,VALID,75.9262,VALID,405.383,VALID,27.4757,VALID,266,VALID,1.9053,
2006-11-07, 19:43:00,VALID,917.269,VALID,0,VALID,74.441,VALID,344.524,VALID,27.4566,VALID,248,VALID,0.741824,
2006-11-07, 19:44:00,VALID,917.234,VALID,0,VALID,73.5839,VALID,305.791,VALID,27.2461,VALID,279,VALID,1.2459,
2006-11-07, 19:45:00,VALID,917.225,VALID,0,VALID,74.7144,VALID,284.344,VALID,26.79,VALID,210,VALID,1.19762,
2006-11-07, 19:46:00,VALID,917.174,VALID,0,VALID,76.4018,VALID,279.912,VALID,26.354,VALID,281,VALID,1.67648,
2006-11-07, 19:47:00,VALID,917.139,VALID,0,VALID,78.3639,VALID,292.665,VALID,26.1724,VALID,276,VALID,1.19824,
2006-11-07, 19:48:00,VALID,917.118,VALID,0,VALID,79.3163,VALID,339.073,VALID,26.0751,VALID,211,VALID,0.478277,
2006-11-07, 19:49:00,VALID,917.07,VALID,0,VALID,79.7767,VALID,358.075,VALID,26.1203,VALID,278,VALID,1.42551,
2006-11-07, 19:50:00,VALID,917.042,VALID,0,VALID,80.991,VALID,331.5,VALID,26.1139,VALID,280,VALID,1.71504,
2006-11-07, 19:51:00,VALID,917.019,VALID,0,VALID,80.8461,VALID,438.853,VALID,26.1753,VALID,276,VALID,1.61355,
2006-11-07, 19:52:00,VALID,917.005,VALID,0,VALID,80.4964,VALID,381.423,VALID,26.2157,VALID,271,VALID,1.94661,
2006-11-07, 19:53:00,VALID,916.973,VALID,0,VALID,80.4137,VALID,363.169,VALID,26.0286,VALID,273,VALID,1.48562,
2006-11-07, 19:54:00,VALID,916.947,VALID,0,VALID,80.972,VALID,339.685,VALID,25.9542,VALID,282,VALID,0.864397,
2006-11-07, 19:55:00,VALID,916.923,VALID,0,VALID,79.4702,VALID,360.18,VALID,25.8702,VALID,270,VALID,0.970982,